World > North America > United States > New York   Town of Cortlandt, New York

Hourly Verplanck, NY Regional Weather

Feedback E-mail the Weather

Latest News

Verplanck, NY Weather Maps

°F °C°F °C
Verplanck Weather Map
UTC Time: 5/24/2022, 21:32
Your Time:

Verplanck, NY Regional Weather

Expires:202205242200;;522088
ASUS41 KALY 242110
RWRALY

NEW YORK STATE HOURLY WEATHER ROUNDUP
NATIONAL WEATHER SERVICE ALBANY NY
500 PM EDT TUE MAY 24 2022

NOTE: "FAIR" INDICATES FEW OR NO CLOUDS BELOW 12,000 FEET WITH NO
SIGNIFICANT WEATHER AND/OR NO OBSTRUCTIONS TO VISIBILITY.


NYZ032-033-038>043-046>054-057>066-NYZ062>081-082-084-242200-
EAST

  
CITY           SKY/WX    TMP DP  RH WIND       PRES   REMARKS
ALBANY         PTSUNNY   72  45  37 SE5       30.25S                  
GLENS FALLS    FAIR      68  42  38 E6        30.24F                  
POUGHKEEPSIE   PTSUNNY   69  48  47 S8        30.26S                  
NEWBURGH       CLOUDY    66  46  48 S7        30.31R                  
MONTGOMERY     CLOUDY    64  46  52 SW6       30.28R                  
WHITE PLAINS   PTSUNNY   66  42  41 SE5       30.28F                  
ISLIP          PTSUNNY   66  41  40 S12       30.28S                  
NEW YORK CITY  PTSUNNY   64  46  52 NE10      30.29S                  
CENTRAL PARK   CLOUDY    66  49  54 VRB3      30.31F                  
$$


SKY/WX - Weather  TMP - Temperature  DP - Dew Point  RH - Humidity
WIND - Wind Direction/Speed PRES - Barometric Pressure VSB - Visibility
WCI - Wind Chill Index E13G22 Wind - East Wind 13 mph/Gusts of 22 mph

Trending Headlines

Verplanck Radar Loop



Verplanck Quick Facts


National Two Day Weather Forecast


E-mail the Verplanck Weather Forecast

Voice your opinion or tell us about page issues...